THORAD DELTA 1 DEB, 8165

Orbit data source: Space-Track

THORAD DELTA 1 DEB, 8165 is space debris in SSO originally from a launch on Fri, 15 Nov 1974 UTC launched from the Air Force Western Test Range (AFWTR). Debris objects in space refer to the collection of defunct objects orbiting the Earth. Examples of debris include non-operational satellites, rocket bodies, and fragments generated from explosions, collisions, or faulty payload assembly.

Loading next visibility...
Identifier
8165, 1974-089AF
Orbit
SSO
Last TLE update
14 hours ago
Origin
Manufacturer
Unknown
Mission
Spacecraft
Bus & Motor
Unknown
Mass
Unknown
Launch date (UTC)
1974-11-15 (51 years ago)
Launch vehicle
Unknown
Launch site
Air Force Western Test Range (AFWTR)
Object type
Payload
Rocket body
Debris
Shape & HBR
Unknown
Radar Cross Section
Small (<0.1 m²)

Expand to show TLE details & history

TLE from 14 hours ago
0 THORAD DELTA 1 DEB
1 08165U 74089AF  25186.35743531  .00000051  00000-0  61997-3 0  9992
2 08165 101.6683 132.7288 0017327 184.6645 330.0741 12.50164242309425
Epoch: 2025-07-05T08:34Z
TLE epoch observation values (Epoch: 2025-07-05T08:34:42.41Z)
Latitude
24.82857°
Longitude
-94.08876°
Altitude
1,454.744 km
Speed
7.142 km/s
True Right ascension
21h 12m 44s
True Declination
24° 42' 34"
Sunlit
Object was in daylight at epoch
Visualization orbit readout
Latitude
-78.22836°
Longitude
161.47152°
Altitude
1,491.112 km
Speed
7.118 km/s
Apparent Right ascension
21h 21m 38s
Apparent Declination
-70° 23' 12"
Sunlit
Object is in daylight
Visualization observer readout
Local Sidereal Time
10:35:01
Azimuth
168.472° S
Elevation
-58.082°
Doppler factor
1
Orbital elements
Apogee altitude
1,474.933 km
Perigee altitude
1,447.766 km
Semi-major axis
7,839.487 km
Eccentricity
0.00173
Inclination
101.6683°
RAAN
132.7288°
Arg. of periapsis
184.6645°
True anomaly
Unknown
Mean anomaly
330.0741°
Eccentric anomaly
Unknown
Mean motion
3.12688 °/min
Orbital period
115.13 mins
BSTAR
0.00061997
Loading maneuver chart data...
Loading SW <> Apogee altitude chart data...
Loading historical data...
Loading historical data...
Loading historical data...
Loading historical data...
Loading historical data...
Loading historical data...
Loading historical data...

THORAD DELTA 1 DEB Visibility forecast

Observer location: undefined°, undefined°

Span
Click to sort rows by Start time (UTC) header in descending order
Start Az.
Max El. time (UTC)
Max El. Az.
Max El.
End time (UTC)
End Az.
8 mins2025-07-06 07:29:48.145Z60.042° ENE2025-07-06 07:33:48.145Z89.935° E14.143°2025-07-06 07:37:48.145Z119.692° SE
15 mins2025-07-06 09:20:48.145Z19.81° NNE2025-07-06 09:27:48.145Z91.843° ESE44.644°2025-07-06 09:35:48.145Z194.802° SSW
10 mins2025-07-06 11:15:48.145Z344.12° N2025-07-06 11:19:48.145Z309.346° NW21.914°2025-07-06 11:25:48.145Z260.148° W
10 mins2025-07-06 18:30:48.145Z94.05° ESE2025-07-06 18:35:48.145Z49.824° ENE22.49°2025-07-06 18:40:48.145Z9.281° NNE
15 mins2025-07-06 20:20:48.145Z166.96° S2025-07-06 20:27:48.145Z273.902° WNW44.483°2025-07-06 20:35:48.145Z340.602° N
7 mins2025-07-06 22:18:48.145Z248.139° W2025-07-06 22:21:48.145Z270.856° WNW13.992°2025-07-06 22:25:48.145Z300.209° NW
|